Time,TemperatureF,DewpointF,PressureIn,WindDirection,WindDirectionDegrees,WindSpeedMPH,WindSpeedGustMPH,Humidity,HourlyPrecipIn,Conditions,Clouds,dailyrainin,SolarRadiationWatts/m^2,SoftwareType,DateUTC
2013-05-19 00:01:00,68.0,66.2,30.09,SE,138,0.0,0.0,94,0.00,,---,0.06,0.00,VWS V14.01,2013-05-19 04:01:00,
2013-05-19 00:02:00,68.0,66.2,30.09,SE,138,0.0,0.0,94,0.00,,---,0.06,0.00,VWS V14.01,2013-05-19 04:02:00,
2013-05-19 00:07:00,67.9,66.1,30.09,SE,138,0.0,2.0,94,0.00,,---,0.06,0.00,VWS V14.01,2013-05-19 04:07:00,
2013-05-19 00:12:00,67.9,66.1,30.09,SE,138,0.0,1.0,94,0.00,,---,0.00,0.00,VWS V14.01,2013-05-19 04:12:00,
2013-05-19 00:17:00,67.9,66.4,30.09,SE,138,0.0,2.0,95,0.00,,---,0.00,0.00,VWS V14.01,2013-05-19 04:17:00,
2013-05-19 00:22:00,67.9,66.4,30.09,SE,138,0.0,1.0,95,0.00,,---,0.00,0.00,VWS V14.01,2013-05-19 04:22:00,
2013-05-19 00:28:00,67.9,66.4,30.09,SE,138,0.0,0.0,95,0.00,,---,0.00,0.00,VWS V14.01,2013-05-19 04:28:00,
2013-05-19 00:33:00,67.9,66.4,30.09,SE,138,0.0,0.0,95,0.00,,---,0.00,0.00,VWS V14.01,2013-05-19 04:33:00,
2013-05-19 00:38:00,67.9,66.4,30.09,SE,138,0.0,2.0,95,0.00,,---,0.00,0.00,VWS V14.01,2013-05-19 04:38:00,
2013-05-19 00:43:00,67.9,66.4,30.09,SE,138,0.0,0.0,95,0.00,,---,0.00,0.00,VWS V14.01,2013-05-19 04:43:00,
2013-05-19 00:48:00,67.9,66.4,30.09,SE,138,0.0,2.0,95,0.00,,---,0.00,0.00,VWS V14.01,2013-05-19 04:48:00,
2013-05-19 00:53:00,67.9,66.4,30.10,SE,138,0.0,0.0,95,0.00,,---,0.00,0.00,VWS V14.01,2013-05-19 04:53:00,
2013-05-19 00:58:00,67.9,66.4,30.10,SE,138,0.0,0.0,95,0.00,,---,0.00,0.00,VWS V14.01,2013-05-19 04:58:00,
2013-05-19 01:03:00,67.9,66.4,30.10,SE,138,0.0,0.0,95,0.00,,---,0.00,0.00,VWS V14.01,2013-05-19 05:03:00,
2013-05-19 01:08:00,67.9,66.4,30.09,SE,138,0.0,0.0,95,0.00,,---,0.00,0.00,VWS V14.01,2013-05-19 05:08:00,
2013-05-19 01:13:00,67.9,66.4,30.09,SE,138,0.0,0.0,95,0.00,,---,0.00,0.00,VWS V14.01,2013-05-19 05:13:00,
2013-05-19 01:18:00,67.9,66.4,30.09,SE,138,0.0,0.0,95,0.00,,---,0.00,0.00,VWS V14.01,2013-05-19 05:18:00,
2013-05-19 01:23:00,68.0,66.5,30.09,SE,138,0.0,1.0,95,0.00,,---,0.00,0.00,VWS V14.01,2013-05-19 05:23:00,
2013-05-19 01:28:00,68.1,66.6,30.09,SE,138,0.0,1.0,95,0.00,,---,0.00,0.00,VWS V14.01,2013-05-19 05:28:00,
2013-05-19 01:33:00,68.1,66.6,30.08,SE,138,0.0,0.0,95,0.00,,---,0.00,0.00,VWS V14.01,2013-05-19 05:33:00,
2013-05-19 01:38:00,68.1,66.6,30.08,SE,138,0.0,1.0,95,0.00,,---,0.00,0.00,VWS V14.01,2013-05-19 05:38:00,
2013-05-19 01:43:00,68.1,66.6,30.08,SE,138,0.0,2.0,95,0.00,,---,0.00,0.00,VWS V14.01,2013-05-19 05:43:00,
2013-05-19 01:48:00,68.1,66.9,30.08,SE,138,0.0,0.0,96,0.00,,---,0.00,0.00,VWS V14.01,2013-05-19 05:48:00,
2013-05-19 01:53:00,68.2,67.0,30.08,SE,138,0.0,3.0,96,0.00,,---,0.00,0.00,VWS V14.01,2013-05-19 05:53:00,
2013-05-19 01:58:00,68.2,67.0,30.08,SE,138,0.0,0.0,96,0.01,,---,0.01,0.00,VWS V14.01,2013-05-19 05:58:00,
2013-05-19 02:03:00,68.2,67.0,30.08,SE,138,2.0,3.0,96,0.01,,---,0.01,0.00,VWS V14.01,2013-05-19 06:03:00,
2013-05-19 02:08:00,68.3,67.1,30.08,SE,138,0.0,2.0,96,0.01,,---,0.01,0.00,VWS V14.01,2013-05-19 06:08:00,
2013-05-19 02:13:00,68.3,67.1,30.08,SE,138,0.0,3.0,96,0.01,,---,0.01,0.00,VWS V14.01,2013-05-19 06:13:00,
2013-05-19 02:19:00,68.3,67.1,30.08,SE,138,0.0,0.0,96,0.01,,---,0.01,0.00,VWS V14.01,2013-05-19 06:19:00,
2013-05-19 02:24:00,68.3,67.1,30.08,SE,138,0.0,0.0,96,0.01,,---,0.01,0.00,VWS V14.01,2013-05-19 06:24:00,
2013-05-19 02:29:00,68.2,67.0,30.08,SE,138,0.0,0.0,96,0.01,,---,0.01,0.00,VWS V14.01,2013-05-19 06:29:00,
2013-05-19 02:34:00,68.2,67.0,30.07,SE,138,0.0,0.0,96,0.01,,---,0.01,0.00,VWS V14.01,2013-05-19 06:34:00,
2013-05-19 02:39:00,68.1,66.9,30.07,SE,138,0.0,0.0,96,0.01,,---,0.01,0.00,VWS V14.01,2013-05-19 06:39:00,
2013-05-19 02:44:00,68.1,66.9,30.07,SE,138,0.0,0.0,96,0.01,,---,0.01,0.00,VWS V14.01,2013-05-19 06:44:00,
2013-05-19 02:49:00,68.0,66.8,30.07,SE,138,0.0,0.0,96,0.01,,---,0.01,0.00,VWS V14.01,2013-05-19 06:49:00,
2013-05-19 02:54:00,68.0,66.8,30.07,SE,138,0.0,0.0,96,0.01,,---,0.01,0.00,VWS V14.01,2013-05-19 06:54:00,
2013-05-19 02:59:00,68.1,66.9,30.07,SE,138,0.0,0.0,96,0.00,,---,0.01,0.00,VWS V14.01,2013-05-19 06:59:00,
2013-05-19 03:04:00,68.1,66.9,30.07,SE,138,0.0,0.0,96,0.00,,---,0.01,0.00,VWS V14.01,2013-05-19 07:04:00,
2013-05-19 03:09:00,68.1,66.9,30.07,SE,138,0.0,0.0,96,0.00,,---,0.01,0.00,VWS V14.01,2013-05-19 07:09:00,
2013-05-19 03:14:00,68.1,66.9,30.07,SE,138,0.0,0.0,96,0.00,,---,0.01,0.00,VWS V14.01,2013-05-19 07:14:00,
2013-05-19 03:19:00,68.1,66.9,30.07,SE,138,0.0,0.0,96,0.00,,---,0.01,0.00,VWS V14.01,2013-05-19 07:19:00,
2013-05-19 03:24:00,68.1,66.9,30.07,SE,138,0.0,0.0,96,0.00,,---,0.01,0.00,VWS V14.01,2013-05-19 07:24:00,
2013-05-19 03:29:00,68.2,67.0,30.07,SE,138,0.0,0.0,96,0.00,,---,0.01,0.00,VWS V14.01,2013-05-19 07:29:00,
2013-05-19 03:34:00,68.3,67.1,30.07,SE,138,0.0,0.0,96,0.00,,---,0.01,0.00,VWS V14.01,2013-05-19 07:34:00,
2013-05-19 03:39:00,68.3,67.1,30.07,SE,138,0.0,0.0,96,0.00,,---,0.01,0.00,VWS V14.01,2013-05-19 07:39:00,
2013-05-19 03:44:00,68.4,67.2,30.07,SE,138,0.0,0.0,96,0.00,,---,0.01,0.00,VWS V14.01,2013-05-19 07:44:00,
2013-05-19 03:49:00,68.4,67.2,30.06,SE,138,0.0,1.0,96,0.00,,---,0.01,0.00,VWS V14.01,2013-05-19 07:49:00,
2013-05-19 03:54:00,68.4,67.2,30.07,SE,138,2.0,4.0,96,0.00,,---,0.01,0.00,VWS V14.01,2013-05-19 07:54:00,
2013-05-19 03:59:00,68.4,67.2,30.07,SE,138,1.0,2.0,96,0.00,,---,0.01,0.00,VWS V14.01,2013-05-19 07:59:00,
2013-05-19 04:05:00,68.4,67.5,30.06,SE,138,0.0,1.0,97,0.00,,---,0.01,0.00,VWS V14.01,2013-05-19 08:05:00,
2013-05-19 04:10:00,68.5,67.6,30.07,SE,138,0.0,4.0,97,0.00,,---,0.01,0.00,VWS V14.01,2013-05-19 08:10:00,
2013-05-19 04:15:00,68.5,67.6,30.06,SE,138,0.0,1.0,97,0.00,,---,0.01,0.00,VWS V14.01,2013-05-19 08:15:00,
2013-05-19 04:20:00,68.5,67.6,30.07,SE,138,0.0,0.0,97,0.00,,---,0.01,0.00,VWS V14.01,2013-05-19 08:20:00,
2013-05-19 04:25:00,68.5,67.6,30.07,SE,138,0.0,0.0,97,0.00,,---,0.01,0.00,VWS V14.01,2013-05-19 08:25:00,
2013-05-19 04:30:00,68.5,67.6,30.07,SE,138,0.0,0.0,97,0.00,,---,0.01,0.00,VWS V14.01,2013-05-19 08:30:00,
2013-05-19 04:35:00,68.6,67.7,30.07,SE,138,0.0,0.0,97,0.00,,---,0.01,0.00,VWS V14.01,2013-05-19 08:35:00,
2013-05-19 04:40:00,68.6,67.7,30.07,SE,138,1.0,2.0,97,0.00,,---,0.01,0.00,VWS V14.01,2013-05-19 08:40:00,
2013-05-19 04:45:00,68.6,67.4,30.07,SE,138,1.0,1.0,96,0.00,,---,0.01,0.00,VWS V14.01,2013-05-19 08:45:00,
2013-05-19 04:50:00,68.6,67.4,30.07,SE,138,1.0,1.0,96,0.00,,---,0.01,0.00,VWS V14.01,2013-05-19 08:50:00,
2013-05-19 04:55:00,68.6,67.4,30.07,SE,138,0.0,0.0,96,0.00,,---,0.01,0.00,VWS V14.01,2013-05-19 08:55:00,
2013-05-19 05:00:00,68.6,67.4,30.07,SE,138,0.0,0.0,96,0.00,,---,0.01,0.00,VWS V14.01,2013-05-19 09:00:00,
2013-05-19 05:06:00,68.7,67.5,30.08,SE,138,0.0,1.0,96,0.00,,---,0.01,0.00,VWS V14.01,2013-05-19 09:06:00,
2013-05-19 05:11:00,68.7,67.5,30.08,SE,138,0.0,0.0,96,0.00,,---,0.01,0.00,VWS V14.01,2013-05-19 09:11:00,
2013-05-19 05:16:00,68.8,67.6,30.08,SE,138,0.0,1.0,96,0.00,,---,0.01,0.00,VWS V14.01,2013-05-19 09:16:00,
2013-05-19 05:21:00,68.8,67.6,30.07,SE,138,0.0,2.0,96,0.00,,---,0.01,0.00,VWS V14.01,2013-05-19 09:21:00,
2013-05-19 05:26:00,68.8,67.6,30.07,SE,138,0.0,0.0,96,0.00,,---,0.01,0.00,VWS V14.01,2013-05-19 09:26:00,
2013-05-19 05:31:00,68.7,67.5,30.07,SE,138,0.0,2.0,96,0.00,,---,0.01,0.00,VWS V14.01,2013-05-19 09:31:00,
2013-05-19 05:36:00,68.7,67.5,30.07,SE,138,0.0,0.0,96,0.00,,---,0.01,0.00,VWS V14.01,2013-05-19 09:36:00,
2013-05-19 05:41:00,68.7,67.5,30.07,SE,138,0.0,1.0,96,0.00,,---,0.01,0.00,VWS V14.01,2013-05-19 09:41:00,
2013-05-19 05:46:00,68.8,67.6,30.07,SE,138,0.0,0.0,96,0.00,,---,0.01,0.00,VWS V14.01,2013-05-19 09:46:00,
2013-05-19 05:52:00,68.8,67.9,30.07,SE,138,0.0,0.0,97,0.00,,---,0.01,0.00,VWS V14.01,2013-05-19 09:52:00,
2013-05-19 05:57:00,68.8,67.9,30.08,SE,138,0.0,0.0,97,0.00,,---,0.01,0.00,VWS V14.01,2013-05-19 09:57:00,
2013-05-19 06:02:00,68.8,67.9,30.08,SE,138,0.0,0.0,97,0.00,,---,0.01,0.00,VWS V14.01,2013-05-19 10:02:00,
2013-05-19 06:07:00,68.8,67.9,30.08,SE,138,0.0,0.0,97,0.00,,---,0.01,0.00,VWS V14.01,2013-05-19 10:07:00,
2013-05-19 06:12:00,68.9,68.0,30.09,SE,138,0.0,0.0,97,0.00,,---,0.01,0.00,VWS V14.01,2013-05-19 10:12:00,
2013-05-19 06:17:00,68.9,68.0,30.09,SE,138,0.0,0.0,97,0.00,,---,0.01,0.00,VWS V14.01,2013-05-19 10:17:00,
2013-05-19 06:22:00,69.0,68.1,30.09,SE,138,0.0,0.0,97,0.00,,---,0.01,0.00,VWS V14.01,2013-05-19 10:22:00,
2013-05-19 06:27:00,69.0,68.1,30.09,SE,138,0.0,0.0,97,0.00,,---,0.01,7.00,VWS V14.01,2013-05-19 10:27:00,
2013-05-19 06:32:00,69.1,68.2,30.09,SE,138,0.0,2.0,97,0.00,,---,0.01,11.00,VWS V14.01,2013-05-19 10:32:00,
2013-05-19 06:37:00,69.1,68.2,30.09,SE,138,0.0,0.0,97,0.00,,---,0.01,11.00,VWS V14.01,2013-05-19 10:37:00,
2013-05-19 06:43:00,69.1,68.2,30.09,SE,138,0.0,2.0,97,0.00,,---,0.01,16.00,VWS V14.01,2013-05-19 10:43:00,
2013-05-19 06:48:00,69.2,68.3,30.09,SE,138,0.0,3.0,97,0.00,,---,0.01,25.00,VWS V14.01,2013-05-19 10:48:00,
2013-05-19 06:53:00,69.2,68.3,30.09,SE,138,0.0,1.0,97,0.00,,---,0.01,32.00,VWS V14.01,2013-05-19 10:53:00,
2013-05-19 06:58:00,69.3,68.4,30.09,SE,138,0.0,2.0,97,0.00,,---,0.01,40.00,VWS V14.01,2013-05-19 10:58:00,
2013-05-19 07:03:00,69.4,68.5,30.10,SE,138,0.0,2.0,97,0.00,,---,0.01,37.00,VWS V14.01,2013-05-19 11:03:00,
2013-05-19 07:08:00,69.4,68.5,30.10,SE,138,1.0,2.0,97,0.00,,---,0.01,40.00,VWS V14.01,2013-05-19 11:08:00,
2013-05-19 07:13:00,69.6,68.7,30.09,SE,138,0.0,1.0,97,0.00,,---,0.01,53.00,VWS V14.01,2013-05-19 11:13:00,
2013-05-19 07:18:00,69.5,68.6,30.10,SE,138,0.0,4.0,97,0.00,,---,0.01,69.00,VWS V14.01,2013-05-19 11:18:00,
2013-05-19 07:23:00,69.7,68.8,30.10,SE,138,0.0,0.0,97,0.00,,---,0.01,81.00,VWS V14.01,2013-05-19 11:23:00,
2013-05-19 07:28:00,69.9,69.0,30.10,SE,138,1.0,2.0,97,0.00,,---,0.01,102.00,VWS V14.01,2013-05-19 11:28:00,
2013-05-19 07:33:00,69.9,69.0,30.10,SE,138,0.0,1.0,97,0.00,,---,0.01,109.00,VWS V14.01,2013-05-19 11:33:00,
2013-05-19 07:38:00,70.0,69.1,30.11,SE,133,0.0,1.0,97,0.00,,---,0.01,98.00,VWS V14.01,2013-05-19 11:38:00,
2013-05-19 07:43:00,70.1,69.2,30.11,SE,138,0.0,0.0,97,0.00,,---,0.01,118.00,VWS V14.01,2013-05-19 11:43:00,
2013-05-19 07:48:00,70.2,69.3,30.11,SE,138,2.0,2.0,97,0.00,,---,0.01,104.00,VWS V14.01,2013-05-19 11:48:00,
2013-05-19 07:53:00,70.5,69.6,30.11,SE,138,0.0,3.0,97,0.00,,---,0.01,148.00,VWS V14.01,2013-05-19 11:53:00,
2013-05-19 07:58:00,70.7,69.8,30.11,SE,138,0.0,0.0,97,0.00,,---,0.01,176.00,VWS V14.01,2013-05-19 11:58:00,
2013-05-19 08:03:00,70.8,69.6,30.11,SE,138,0.0,2.0,96,0.00,,---,0.01,174.00,VWS V14.01,2013-05-19 12:03:00,
2013-05-19 08:08:00,71.1,70.2,30.11,SE,138,3.0,3.0,97,0.00,,---,0.01,179.00,VWS V14.01,2013-05-19 12:08:00,
2013-05-19 08:13:00,71.1,69.9,30.11,SE,133,0.0,4.0,96,0.00,,---,0.01,172.00,VWS V14.01,2013-05-19 12:13:00,
2013-05-19 08:18:00,71.2,70.0,30.10,SE,138,4.0,4.0,96,0.00,,---,0.01,211.00,VWS V14.01,2013-05-19 12:18:00,
2013-05-19 08:23:00,71.3,70.1,30.11,SE,138,0.0,4.0,96,0.00,,---,0.01,188.00,VWS V14.01,2013-05-19 12:23:00,
2013-05-19 08:28:00,71.6,70.4,30.11,SE,138,0.0,0.0,96,0.00,,---,0.01,221.00,VWS V14.01,2013-05-19 12:28:00,
2013-05-19 08:33:00,71.7,70.5,30.11,SE,138,0.0,0.0,96,0.00,,---,0.01,239.00,VWS V14.01,2013-05-19 12:33:00,
2013-05-19 08:38:00,72.1,70.9,30.11,SE,138,0.0,0.0,96,0.00,,---,0.01,193.00,VWS V14.01,2013-05-19 12:38:00,
2013-05-19 08:44:00,72.2,70.7,30.11,SE,138,0.0,0.0,95,0.00,,---,0.01,142.00,VWS V14.01,2013-05-19 12:44:00,
2013-05-19 08:49:00,72.2,70.7,30.11,SE,138,0.0,0.0,95,0.00,,---,0.01,109.00,VWS V14.01,2013-05-19 12:49:00,
2013-05-19 08:54:00,72.4,70.9,30.11,SE,138,0.0,0.0,95,0.00,,---,0.01,135.00,VWS V14.01,2013-05-19 12:54:00,
2013-05-19 08:59:00,72.4,70.9,30.11,SE,138,0.0,0.0,95,0.00,,---,0.01,132.00,VWS V14.01,2013-05-19 12:59:00,
2013-05-19 09:04:00,72.5,71.0,30.11,SE,138,0.0,0.0,95,0.00,,---,0.01,153.00,VWS V14.01,2013-05-19 13:04:00,
2013-05-19 09:09:00,72.7,71.2,30.11,SE,138,0.0,0.0,95,0.00,,---,0.01,188.00,VWS V14.01,2013-05-19 13:09:00,
2013-05-19 09:14:00,72.9,71.1,30.11,SE,138,1.0,4.0,94,0.00,,---,0.01,144.00,VWS V14.01,2013-05-19 13:14:00,
2013-05-19 09:19:00,73.0,71.2,30.12,SE,138,2.0,3.0,94,0.00,,---,0.01,135.00,VWS V14.01,2013-05-19 13:19:00,
2013-05-19 09:24:00,73.1,71.3,30.11,SE,138,0.0,4.0,94,0.00,,---,0.01,202.00,VWS V14.01,2013-05-19 13:24:00,
2013-05-19 09:29:00,73.5,71.7,30.11,SE,138,3.0,3.0,94,0.00,,---,0.01,290.00,VWS V14.01,2013-05-19 13:29:00,
2013-05-19 09:34:00,73.5,71.4,30.11,SE,138,3.0,4.0,93,0.00,,---,0.01,285.00,VWS V14.01,2013-05-19 13:34:00,
2013-05-19 09:39:00,73.7,71.6,30.11,SSE,154,1.0,1.0,93,0.00,,---,0.01,292.00,VWS V14.01,2013-05-19 13:39:00,
2013-05-19 09:45:00,73.8,71.3,30.11,SSE,154,0.0,1.0,92,0.00,,---,0.01,320.00,VWS V14.01,2013-05-19 13:45:00,
2013-05-19 09:50:00,74.1,71.9,30.11,SSE,155,2.0,4.0,93,0.00,,---,0.01,244.00,VWS V14.01,2013-05-19 13:50:00,
2013-05-19 09:55:00,74.3,71.8,30.11,SSE,155,0.0,2.0,92,0.00,,---,0.01,176.00,VWS V14.01,2013-05-19 13:55:00,
2013-05-19 10:00:00,74.4,72.2,30.11,SSE,155,0.0,1.0,93,0.00,,---,0.01,281.00,VWS V14.01,2013-05-19 14:00:00,
2013-05-19 10:05:00,74.6,71.8,30.11,SSE,155,0.0,0.0,91,0.00,,---,0.01,260.00,VWS V14.01,2013-05-19 14:05:00,
2013-05-19 10:10:00,74.6,71.5,30.11,SW,214,4.0,4.0,90,0.00,,---,0.01,299.00,VWS V14.01,2013-05-19 14:10:00,
2013-05-19 10:15:00,75.0,72.2,30.11,SW,228,4.0,4.0,91,0.00,,---,0.01,330.00,VWS V14.01,2013-05-19 14:15:00,
2013-05-19 10:20:00,75.2,71.7,30.11,SW,223,0.0,7.0,89,0.00,,---,0.01,367.00,VWS V14.01,2013-05-19 14:20:00,
2013-05-19 10:25:00,75.3,71.5,30.11,SSW,210,4.0,4.0,88,0.00,,---,0.01,330.00,VWS V14.01,2013-05-19 14:25:00,
2013-05-19 10:30:00,75.5,71.4,30.11,SSW,211,4.0,8.0,87,0.00,,---,0.01,408.00,VWS V14.01,2013-05-19 14:30:00,
2013-05-19 10:35:00,75.7,71.2,30.11,SSW,212,5.0,7.0,86,0.00,,---,0.01,424.00,VWS V14.01,2013-05-19 14:35:00,
2013-05-19 10:40:00,76.0,71.9,30.11,SSW,213,3.0,9.0,87,0.00,,---,0.01,420.00,VWS V14.01,2013-05-19 14:40:00,
2013-05-19 10:45:00,76.0,71.2,30.10,SW,220,1.0,8.0,85,0.00,,---,0.01,504.00,VWS V14.01,2013-05-19 14:45:00,
2013-05-19 10:51:00,76.9,72.4,30.10,SW,217,5.0,8.0,86,0.00,,---,0.01,504.00,VWS V14.01,2013-05-19 14:51:00,
2013-05-19 10:56:00,76.7,71.2,30.11,SW,219,0.0,8.0,83,0.00,,---,0.01,464.00,VWS V14.01,2013-05-19 14:56:00,
2013-05-19 11:01:00,77.4,72.2,30.11,SW,219,0.0,5.0,84,0.00,,---,0.01,780.00,VWS V14.01,2013-05-19 15:01:00,
2013-05-19 11:06:00,77.7,72.1,30.11,SW,217,5.0,6.0,83,0.00,,---,0.01,541.00,VWS V14.01,2013-05-19 15:06:00,
2013-05-19 11:11:00,77.8,72.2,30.11,SW,220,3.0,5.0,83,0.00,,---,0.01,450.00,VWS V14.01,2013-05-19 15:11:00,
2013-05-19 11:16:00,77.8,71.9,30.11,SW,224,6.0,7.0,82,0.00,,---,0.01,473.00,VWS V14.01,2013-05-19 15:16:00,
2013-05-19 11:21:00,77.9,71.6,30.11,SW,219,0.0,5.0,81,0.00,,---,0.01,455.00,VWS V14.01,2013-05-19 15:21:00,
2013-05-19 11:26:00,77.9,71.6,30.11,SW,221,5.0,5.0,81,0.00,,---,0.01,381.00,VWS V14.01,2013-05-19 15:26:00,
2013-05-19 11:31:00,77.9,71.6,30.10,SW,221,1.0,4.0,81,0.00,,---,0.01,279.00,VWS V14.01,2013-05-19 15:31:00,
2013-05-19 11:36:00,77.8,71.5,30.10,SW,221,0.0,2.0,81,0.00,,---,0.01,248.00,VWS V14.01,2013-05-19 15:36:00,
2013-05-19 11:41:00,77.6,71.3,30.10,SW,222,5.0,6.0,81,0.00,,---,0.01,306.00,VWS V14.01,2013-05-19 15:41:00,
2013-05-19 11:46:00,77.6,71.3,30.10,SW,223,3.0,6.0,81,0.00,,---,0.01,425.00,VWS V14.01,2013-05-19 15:46:00,
2013-05-19 11:52:00,78.2,71.9,30.10,SW,223,0.0,4.0,81,0.00,,---,0.01,575.00,VWS V14.01,2013-05-19 15:52:00,
2013-05-19 11:57:00,78.2,70.8,30.10,SW,223,0.0,5.0,78,0.00,,---,0.01,327.00,VWS V14.01,2013-05-19 15:57:00,
2013-05-19 12:02:00,78.3,71.3,30.10,SW,223,0.0,6.0,79,0.00,,---,0.01,432.00,VWS V14.01,2013-05-19 16:02:00,
2013-05-19 12:07:00,78.4,71.0,30.10,WSW,243,5.0,11.0,78,0.00,,---,0.01,591.00,VWS V14.01,2013-05-19 16:07:00,
2013-05-19 12:12:00,79.1,72.0,30.09,WSW,242,5.0,10.0,79,0.00,,---,0.01,1046.00,VWS V14.01,2013-05-19 16:12:00,
2013-05-19 12:17:00,79.4,71.6,30.09,SW,232,6.0,10.0,77,0.00,,---,0.01,554.00,VWS V14.01,2013-05-19 16:17:00,
2013-05-19 12:22:00,79.1,70.9,30.09,SW,231,7.0,10.0,76,0.00,,---,0.01,348.00,VWS V14.01,2013-05-19 16:22:00,
2013-05-19 12:27:00,78.7,70.5,30.09,SW,234,4.0,8.0,76,0.00,,---,0.01,251.00,VWS V14.01,2013-05-19 16:27:00,
2013-05-19 12:32:00,78.5,71.1,30.09,SW,234,6.0,10.0,78,0.00,,---,0.01,236.00,VWS V14.01,2013-05-19 16:32:00,
2013-05-19 12:37:00,78.2,71.2,30.08,SW,233,5.0,8.0,79,0.00,,---,0.01,401.00,VWS V14.01,2013-05-19 16:37:00,
2013-05-19 12:42:00,78.4,70.6,30.08,SW,231,7.0,12.0,77,0.00,,---,0.01,555.00,VWS V14.01,2013-05-19 16:42:00,
2013-05-19 12:47:00,78.9,71.5,30.08,WSW,253,2.0,10.0,78,0.00,,---,0.01,1169.00,VWS V14.01,2013-05-19 16:47:00,
2013-05-19 12:53:00,80.2,71.6,30.07,WSW,246,10.0,11.0,75,0.00,,---,0.01,993.00,VWS V14.01,2013-05-19 16:53:00,
2013-05-19 12:58:00,81.1,71.6,30.07,West,261,10.0,11.0,73,0.00,,---,0.01,1248.00,VWS V14.01,2013-05-19 16:58:00,
2013-05-19 13:03:00,81.4,72.3,30.07,WSW,252,7.0,11.0,74,0.00,,---,0.01,1215.00,VWS V14.01,2013-05-19 17:03:00,
2013-05-19 13:08:00,81.1,72.0,30.08,WSW,243,9.0,13.0,74,0.00,,---,0.01,580.00,VWS V14.01,2013-05-19 17:08:00,
2013-05-19 13:13:00,80.2,71.6,30.08,WSW,248,9.0,11.0,75,0.00,,---,0.01,471.00,VWS V14.01,2013-05-19 17:13:00,
2013-05-19 13:18:00,80.0,71.8,30.08,West,259,10.0,11.0,76,0.00,,---,0.01,566.00,VWS V14.01,2013-05-19 17:18:00,
2013-05-19 13:23:00,80.4,71.4,30.07,West,259,7.0,12.0,74,0.00,,---,0.01,768.00,VWS V14.01,2013-05-19 17:23:00,
2013-05-19 13:28:00,80.5,71.1,30.07,SSW,199,8.0,12.0,73,0.00,,---,0.01,666.00,VWS V14.01,2013-05-19 17:28:00,
2013-05-19 13:33:00,81.0,71.9,30.07,West,272,11.0,14.0,74,0.00,,---,0.01,784.00,VWS V14.01,2013-05-19 17:33:00,
2013-05-19 13:38:00,80.8,70.9,30.06,WSW,252,8.0,13.0,72,0.00,,---,0.01,596.00,VWS V14.01,2013-05-19 17:38:00,
2013-05-19 13:43:00,80.6,70.8,30.06,WSW,254,7.0,11.0,72,0.00,,---,0.01,1016.00,VWS V14.01,2013-05-19 17:43:00,
2013-05-19 13:48:00,81.6,71.7,30.06,West,261,12.0,15.0,72,0.00,,---,0.01,993.00,VWS V14.01,2013-05-19 17:48:00,
2013-05-19 13:53:00,82.0,71.7,30.05,SW,228,8.0,13.0,71,0.00,,---,0.01,998.00,VWS V14.01,2013-05-19 17:53:00,
2013-05-19 13:58:00,81.6,71.7,30.04,West,270,4.0,11.0,72,0.00,,---,0.01,452.00,VWS V14.01,2013-05-19 17:58:00,
2013-05-19 14:04:00,81.6,71.7,30.04,WNW,292,11.0,11.0,72,0.00,,---,0.01,789.00,VWS V14.01,2013-05-19 18:04:00,
2013-05-19 14:09:00,81.7,71.8,30.05,WSW,247,10.0,11.0,72,0.00,,---,0.01,754.00,VWS V14.01,2013-05-19 18:09:00,
2013-05-19 14:14:00,81.4,71.9,30.05,West,263,8.0,10.0,73,0.00,,---,0.01,506.00,VWS V14.01,2013-05-19 18:14:00,
2013-05-19 14:19:00,81.1,71.6,30.05,SW,232,8.0,9.0,73,0.00,,---,0.01,552.00,VWS V14.01,2013-05-19 18:19:00,
2013-05-19 14:24:00,80.8,71.3,30.05,West,263,9.0,13.0,73,0.00,,---,0.01,615.00,VWS V14.01,2013-05-19 18:24:00,
2013-05-19 14:29:00,80.9,70.2,30.05,WSW,241,6.0,11.0,70,0.00,,---,0.01,745.00,VWS V14.01,2013-05-19 18:29:00,
2013-05-19 14:34:00,81.0,71.1,30.05,SW,234,10.0,10.0,72,0.00,,---,0.01,617.00,VWS V14.01,2013-05-19 18:34:00,
2013-05-19 14:39:00,81.0,71.1,30.04,West,269,6.0,9.0,72,0.00,,---,0.01,605.00,VWS V14.01,2013-05-19 18:39:00,
2013-05-19 14:44:00,81.0,70.7,30.04,WSW,253,8.0,9.0,71,0.00,,---,0.01,744.00,VWS V14.01,2013-05-19 18:44:00,
2013-05-19 14:49:00,81.2,70.9,30.04,SW,235,5.0,5.0,71,0.00,,---,0.01,729.00,VWS V14.01,2013-05-19 18:49:00,
2013-05-19 14:54:00,81.5,71.2,30.05,West,259,9.0,11.0,71,0.00,,---,0.01,747.00,VWS V14.01,2013-05-19 18:54:00,
2013-05-19 14:59:00,81.7,71.8,30.05,WSW,248,5.0,7.0,72,0.00,,---,0.01,482.00,VWS V14.01,2013-05-19 18:59:00,
2013-05-19 15:04:00,81.4,70.7,30.05,SW,236,5.0,9.0,70,0.00,,---,0.01,369.00,VWS V14.01,2013-05-19 19:04:00,
2013-05-19 15:09:00,80.8,70.9,30.05,WSW,244,7.0,9.0,72,0.00,,---,0.01,288.00,VWS V14.01,2013-05-19 19:09:00,
2013-05-19 15:14:00,80.3,70.1,30.05,WSW,254,5.0,9.0,71,0.00,,---,0.01,276.00,VWS V14.01,2013-05-19 19:14:00,
2013-05-19 15:19:00,80.0,70.6,30.05,WSW,249,4.0,7.0,73,0.00,,---,0.01,220.00,VWS V14.01,2013-05-19 19:19:00,
2013-05-19 15:24:00,79.8,70.8,30.05,West,261,7.0,7.0,74,0.00,,---,0.01,230.00,VWS V14.01,2013-05-19 19:24:00,
2013-05-19 15:29:00,79.4,70.4,30.05,WSW,252,10.0,10.0,74,0.00,,---,0.01,253.00,VWS V14.01,2013-05-19 19:29:00,
2013-05-19 15:34:00,79.2,70.6,30.04,WSW,250,7.0,8.0,75,0.00,,---,0.01,313.00,VWS V14.01,2013-05-19 19:34:00,
2013-05-19 15:39:00,79.2,70.6,30.04,WSW,250,9.0,12.0,75,0.00,,---,0.01,325.00,VWS V14.01,2013-05-19 19:39:00,
2013-05-19 15:44:00,79.4,70.4,30.03,WSW,240,4.0,5.0,74,0.00,,---,0.01,320.00,VWS V14.01,2013-05-19 19:44:00,
2013-05-19 15:50:00,79.4,70.4,30.04,WSW,253,2.0,7.0,74,0.00,,---,0.01,311.00,VWS V14.01,2013-05-19 19:50:00,
2013-05-19 15:55:00,79.4,70.4,30.03,WSW,242,6.0,6.0,74,0.00,,---,0.01,316.00,VWS V14.01,2013-05-19 19:55:00,
2013-05-19 16:00:00,79.4,70.4,30.03,WSW,243,0.0,4.0,74,0.00,,---,0.01,315.00,VWS V14.01,2013-05-19 20:00:00,
2013-05-19 16:05:00,79.3,70.3,30.03,WSW,237,4.0,5.0,74,0.00,,---,0.01,234.00,VWS V14.01,2013-05-19 20:05:00,
2013-05-19 16:10:00,79.3,70.7,30.03,WSW,238,2.0,5.0,75,0.00,,---,0.01,287.00,VWS V14.01,2013-05-19 20:10:00,
2013-05-19 16:15:00,79.0,70.0,30.03,WSW,238,4.0,4.0,74,0.00,,---,0.01,283.00,VWS V14.01,2013-05-19 20:15:00,
2013-05-19 16:20:00,79.1,70.5,30.03,WSW,238,0.0,2.0,75,0.00,,---,0.01,269.00,VWS V14.01,2013-05-19 20:20:00,
2013-05-19 16:25:00,79.1,70.1,30.03,WSW,237,0.0,5.0,74,0.00,,---,0.01,257.00,VWS V14.01,2013-05-19 20:25:00,
2013-05-19 16:30:00,79.0,70.4,30.04,WSW,237,0.0,4.0,75,0.00,,---,0.01,234.00,VWS V14.01,2013-05-19 20:30:00,
2013-05-19 16:35:00,78.9,70.3,30.04,WSW,237,0.0,0.0,75,0.00,,---,0.01,174.00,VWS V14.01,2013-05-19 20:35:00,
2013-05-19 16:40:00,78.8,69.8,30.05,WSW,237,0.0,0.0,74,0.00,,---,0.01,134.00,VWS V14.01,2013-05-19 20:40:00,
2013-05-19 16:45:00,78.7,70.1,30.05,WSW,237,0.0,0.0,75,0.00,,---,0.01,104.00,VWS V14.01,2013-05-19 20:45:00,
2013-05-19 16:50:00,78.2,70.4,30.05,SSW,202,0.0,3.0,77,0.00,,---,0.01,69.00,VWS V14.01,2013-05-19 20:50:00,
2013-05-19 16:55:00,77.3,70.3,30.05,SSE,156,0.0,6.0,79,0.00,,---,0.01,83.00,VWS V14.01,2013-05-19 20:55:00,
2013-05-19 17:00:00,76.7,70.1,30.05,SSE,156,0.0,1.0,80,0.00,,---,0.01,114.00,VWS V14.01,2013-05-19 21:00:00,
2013-05-19 17:05:00,76.6,70.7,30.05,SE,146,5.0,6.0,82,0.00,,---,0.01,148.00,VWS V14.01,2013-05-19 21:05:00,
2013-05-19 17:10:00,76.6,70.7,30.05,SE,146,0.0,3.0,82,0.00,,---,0.01,176.00,VWS V14.01,2013-05-19 21:10:00,
2013-05-19 17:15:00,76.9,71.0,30.05,SE,146,0.0,1.0,82,0.00,,---,0.01,200.00,VWS V14.01,2013-05-19 21:15:00,
2013-05-19 17:20:00,76.9,71.0,30.05,SE,144,4.0,5.0,82,0.00,,---,0.01,213.00,VWS V14.01,2013-05-19 21:20:00,
2013-05-19 17:26:00,76.9,71.0,30.05,SE,143,3.0,5.0,82,0.00,,---,0.01,214.00,VWS V14.01,2013-05-19 21:26:00,
2013-05-19 17:31:00,76.6,71.1,30.05,SE,135,2.0,4.0,83,0.00,,---,0.01,213.00,VWS V14.01,2013-05-19 21:31:00,
2013-05-19 17:36:00,76.3,71.1,30.05,ESE,123,3.0,8.0,84,0.00,,---,0.01,218.00,VWS V14.01,2013-05-19 21:36:00,
2013-05-19 17:41:00,75.7,70.5,30.05,ESE,119,0.0,8.0,84,0.00,,---,0.01,206.00,VWS V14.01,2013-05-19 21:41:00,
2013-05-19 17:46:00,75.8,71.0,30.05,ESE,117,0.0,4.0,85,0.00,,---,0.01,149.00,VWS V14.01,2013-05-19 21:46:00,
2013-05-19 17:51:00,75.6,70.8,30.06,SE,134,4.0,10.0,85,0.00,,---,0.01,69.00,VWS V14.01,2013-05-19 21:51:00,
2013-05-19 17:56:00,75.3,70.8,30.06,ESE,117,7.0,8.0,86,0.00,,---,0.01,46.00,VWS V14.01,2013-05-19 21:56:00,
2013-05-19 18:01:00,75.1,70.3,30.06,SSE,167,3.0,9.0,85,0.00,,---,0.01,35.00,VWS V14.01,2013-05-19 22:01:00,
2013-05-19 18:06:00,74.1,68.3,30.06,SSE,155,0.0,4.0,82,0.00,,---,0.01,76.00,VWS V14.01,2013-05-19 22:06:00,
2013-05-19 18:11:00,73.4,67.6,30.06,South,189,3.0,10.0,82,0.00,,---,0.01,97.00,VWS V14.01,2013-05-19 22:11:00,
2013-05-19 18:16:00,72.8,67.7,30.06,SE,126,7.0,11.0,84,0.00,,---,0.01,135.00,VWS V14.01,2013-05-19 22:16:00,
2013-05-19 18:21:00,72.2,67.4,30.06,SSW,192,6.0,9.0,85,0.00,,---,0.01,83.00,VWS V14.01,2013-05-19 22:21:00,
2013-05-19 18:26:00,71.7,67.3,30.06,SSW,211,0.0,12.0,86,0.00,,---,0.01,53.00,VWS V14.01,2013-05-19 22:26:00,
2013-05-19 18:31:00,71.3,67.2,30.05,ESE,122,7.0,9.0,87,0.00,,---,0.01,53.00,VWS V14.01,2013-05-19 22:31:00,
2013-05-19 18:36:00,71.1,67.4,30.05,South,179,2.0,6.0,88,0.00,,---,0.01,46.00,VWS V14.01,2013-05-19 22:36:00,
2013-05-19 18:41:00,70.9,67.2,30.05,SSE,165,6.0,6.0,88,0.00,,---,0.01,28.00,VWS V14.01,2013-05-19 22:41:00,
2013-05-19 18:47:00,70.8,67.1,30.05,SSE,150,9.0,9.0,88,0.00,,---,0.01,28.00,VWS V14.01,2013-05-19 22:47:00,
2013-05-19 18:52:00,70.7,67.3,30.05,SSE,167,0.0,3.0,89,0.00,,---,0.01,26.00,VWS V14.01,2013-05-19 22:52:00,
2013-05-19 18:57:00,70.6,67.2,30.05,SSE,168,2.0,5.0,89,0.00,,---,0.01,32.00,VWS V14.01,2013-05-19 22:57:00,
2013-05-19 19:02:00,70.4,67.3,30.05,SSE,165,0.0,6.0,90,0.00,,---,0.01,28.00,VWS V14.01,2013-05-19 23:02:00,
2013-05-19 19:07:00,70.3,67.6,30.05,SSE,165,0.0,2.0,91,0.00,,---,0.01,33.00,VWS V14.01,2013-05-19 23:07:00,
2013-05-19 19:12:00,70.3,67.6,30.05,SSE,166,5.0,6.0,91,0.00,,---,0.01,33.00,VWS V14.01,2013-05-19 23:12:00,
2013-05-19 19:17:00,70.3,67.9,30.05,SSE,166,0.0,3.0,92,0.00,,---,0.01,32.00,VWS V14.01,2013-05-19 23:17:00,
2013-05-19 19:22:00,70.3,67.9,30.05,SSE,167,0.0,5.0,92,0.00,,---,0.01,19.00,VWS V14.01,2013-05-19 23:22:00,
2013-05-19 19:27:00,70.2,68.1,30.05,SSE,167,0.0,0.0,93,0.00,,---,0.01,14.00,VWS V14.01,2013-05-19 23:27:00,
2013-05-19 19:32:00,70.1,68.0,30.05,SSE,167,0.0,1.0,93,0.00,,---,0.01,23.00,VWS V14.01,2013-05-19 23:32:00,
2013-05-19 19:37:00,70.2,68.4,30.05,SSE,167,0.0,0.0,94,0.00,,---,0.01,35.00,VWS V14.01,2013-05-19 23:37:00,
2013-05-19 19:42:00,70.2,68.4,30.05,SSE,167,0.0,5.0,94,0.00,,---,0.01,37.00,VWS V14.01,2013-05-19 23:42:00,
2013-05-19 19:47:00,70.2,68.4,30.05,SSE,167,0.0,1.0,94,0.00,,---,0.01,21.00,VWS V14.01,2013-05-19 23:47:00,
2013-05-19 19:52:00,70.2,68.4,30.05,SSE,167,0.0,0.0,94,0.00,,---,0.01,16.00,VWS V14.01,2013-05-19 23:52:00,
2013-05-19 19:58:00,70.3,68.5,30.06,SSE,167,0.0,0.0,94,0.00,,---,0.01,11.00,VWS V14.01,2013-05-19 23:58:00,
2013-05-19 20:03:00,70.3,68.5,30.06,SSE,167,0.0,0.0,94,0.00,,---,0.01,9.00,VWS V14.01,2013-05-20 00:03:00,
2013-05-19 20:08:00,70.4,68.6,30.06,SSE,167,0.0,0.0,94,0.00,,---,0.01,7.00,VWS V14.01,2013-05-20 00:08:00,
2013-05-19 20:13:00,70.4,68.6,30.06,SSE,167,0.0,1.0,94,0.00,,---,0.01,5.00,VWS V14.01,2013-05-20 00:13:00,
2013-05-19 20:18:00,70.5,68.7,30.06,SSE,167,0.0,1.0,94,0.00,,---,0.01,0.00,VWS V14.01,2013-05-20 00:18:00,
2013-05-19 20:23:00,70.5,68.7,30.06,SSE,167,0.0,0.0,94,0.00,,---,0.01,0.00,VWS V14.01,2013-05-20 00:23:00,
2013-05-19 20:28:00,70.4,68.6,30.06,SSE,167,0.0,1.0,94,0.00,,---,0.01,0.00,VWS V14.01,2013-05-20 00:28:00,
2013-05-19 20:33:00,70.3,68.5,30.06,SSE,167,0.0,0.0,94,0.00,,---,0.01,0.00,VWS V14.01,2013-05-20 00:33:00,
2013-05-19 20:38:00,70.3,68.5,30.06,SSE,167,0.0,0.0,94,0.00,,---,0.01,0.00,VWS V14.01,2013-05-20 00:38:00,
2013-05-19 20:43:00,70.3,68.5,30.06,SSE,167,0.0,0.0,94,0.00,,---,0.01,0.00,VWS V14.01,2013-05-20 00:43:00,
2013-05-19 20:48:00,70.1,68.6,30.06,SSE,167,0.0,4.0,95,0.00,,---,0.01,0.00,VWS V14.01,2013-05-20 00:48:00,
2013-05-19 20:53:00,70.0,68.2,30.06,SSE,167,0.0,1.0,94,0.00,,---,0.01,0.00,VWS V14.01,2013-05-20 00:53:00,
2013-05-19 20:58:00,69.8,68.3,30.06,SSE,167,0.0,0.0,95,0.00,,---,0.01,0.00,VWS V14.01,2013-05-20 00:58:00,
2013-05-19 21:03:00,69.7,68.2,30.05,SSE,167,0.0,0.0,95,0.00,,---,0.01,0.00,VWS V14.01,2013-05-20 01:03:00,
2013-05-19 21:08:00,69.6,68.1,30.06,SSE,167,0.0,0.0,95,0.00,,---,0.01,0.00,VWS V14.01,2013-05-20 01:08:00,
2013-05-19 21:13:00,69.4,67.9,30.06,SSE,167,0.0,0.0,95,0.00,,---,0.01,0.00,VWS V14.01,2013-05-20 01:13:00,
2013-05-19 21:18:00,69.4,67.9,30.06,SSE,167,0.0,0.0,95,0.00,,---,0.01,0.00,VWS V14.01,2013-05-20 01:18:00,
2013-05-19 21:23:00,69.3,67.8,30.06,SSE,167,0.0,0.0,95,0.00,,---,0.01,0.00,VWS V14.01,2013-05-20 01:23:00,
2013-05-19 21:29:00,69.1,67.6,30.06,SSE,167,0.0,0.0,95,0.00,,---,0.01,0.00,VWS V14.01,2013-05-20 01:29:00,
2013-05-19 21:34:00,68.9,67.4,30.07,SSE,167,0.0,0.0,95,0.00,,---,0.01,0.00,VWS V14.01,2013-05-20 01:34:00,
2013-05-19 21:39:00,68.9,67.7,30.07,SSE,167,0.0,0.0,96,0.00,,---,0.01,0.00,VWS V14.01,2013-05-20 01:39:00,
2013-05-19 21:44:00,69.0,67.8,30.06,SSE,167,0.0,0.0,96,0.00,,---,0.01,0.00,VWS V14.01,2013-05-20 01:44:00,
2013-05-19 21:49:00,69.0,67.8,30.06,SSE,167,0.0,0.0,96,0.00,,---,0.01,0.00,VWS V14.01,2013-05-20 01:49:00,
2013-05-19 21:54:00,69.1,67.9,30.07,SSE,167,0.0,0.0,96,0.00,,---,0.01,0.00,VWS V14.01,2013-05-20 01:54:00,
2013-05-19 21:59:00,69.2,68.0,30.07,SSE,167,0.0,0.0,96,0.00,,---,0.01,0.00,VWS V14.01,2013-05-20 01:59:00,
2013-05-19 22:04:00,69.2,68.0,30.07,SSE,167,0.0,0.0,96,0.00,,---,0.01,0.00,VWS V14.01,2013-05-20 02:04:00,
2013-05-19 22:09:00,69.3,68.1,30.07,SSE,167,0.0,0.0,96,0.00,,---,0.01,0.00,VWS V14.01,2013-05-20 02:09:00,
2013-05-19 22:14:00,69.4,68.2,30.07,SSE,167,0.0,1.0,96,0.00,,---,0.01,0.00,VWS V14.01,2013-05-20 02:14:00,
2013-05-19 22:19:00,69.4,68.2,30.07,SSE,167,0.0,0.0,96,0.00,,---,0.01,0.00,VWS V14.01,2013-05-20 02:19:00,
2013-05-19 22:25:00,69.5,68.3,30.07,SSE,162,2.0,2.0,96,0.00,,---,0.01,0.00,VWS V14.01,2013-05-20 02:25:00,
2013-05-19 22:30:00,69.4,68.2,30.08,SSE,162,0.0,0.0,96,0.00,,---,0.01,0.00,VWS V14.01,2013-05-20 02:30:00,
2013-05-19 22:35:00,69.4,68.2,30.07,SSE,162,0.0,0.0,96,0.00,,---,0.01,0.00,VWS V14.01,2013-05-20 02:35:00,
2013-05-19 22:40:00,69.3,68.1,30.07,SSE,162,0.0,1.0,96,0.00,,---,0.01,0.00,VWS V14.01,2013-05-20 02:40:00,
2013-05-19 22:45:00,69.4,68.5,30.08,SSE,162,1.0,2.0,97,0.00,,---,0.01,0.00,VWS V14.01,2013-05-20 02:45:00,
2013-05-19 22:50:00,69.4,68.5,30.08,SSE,162,0.0,0.0,97,0.00,,---,0.01,0.00,VWS V14.01,2013-05-20 02:50:00,
2013-05-19 22:55:00,69.3,68.4,30.08,SSE,162,0.0,0.0,97,0.00,,---,0.01,0.00,VWS V14.01,2013-05-20 02:55:00,
2013-05-19 23:00:00,69.1,68.2,30.08,SSE,162,0.0,0.0,97,0.00,,---,0.01,0.00,VWS V14.01,2013-05-20 03:00:00,
2013-05-19 23:05:00,69.1,68.2,30.08,SSE,162,0.0,0.0,97,0.00,,---,0.01,0.00,VWS V14.01,2013-05-20 03:05:00,
2013-05-19 23:10:00,69.1,68.2,30.08,SSE,162,0.0,0.0,97,0.00,,---,0.01,0.00,VWS V14.01,2013-05-20 03:10:00,
2013-05-19 23:15:00,69.0,68.1,30.08,SSE,162,0.0,0.0,97,0.00,,---,0.01,0.00,VWS V14.01,2013-05-20 03:15:00,
2013-05-19 23:20:00,69.2,68.3,30.08,SSE,162,0.0,0.0,97,0.00,,---,0.01,0.00,VWS V14.01,2013-05-20 03:20:00,
2013-05-19 23:25:00,69.2,68.3,30.07,SSE,162,0.0,0.0,97,0.00,,---,0.01,0.00,VWS V14.01,2013-05-20 03:25:00,
2013-05-19 23:31:00,69.3,68.4,30.08,SSE,162,1.0,2.0,97,0.00,,---,0.01,0.00,VWS V14.01,2013-05-20 03:31:00,
2013-05-19 23:36:00,69.5,68.6,30.08,SSE,162,0.0,1.0,97,0.00,,---,0.01,0.00,VWS V14.01,2013-05-20 03:36:00,
2013-05-19 23:41:00,69.6,68.7,30.08,SSE,162,0.0,4.0,97,0.00,,---,0.01,0.00,VWS V14.01,2013-05-20 03:41:00,
2013-05-19 23:46:00,69.6,68.7,30.08,SSE,162,0.0,1.0,97,0.00,,---,0.01,0.00,VWS V14.01,2013-05-20 03:46:00,
2013-05-19 23:51:00,69.7,68.8,30.07,SSE,162,0.0,0.0,97,0.00,,---,0.01,0.00,VWS V14.01,2013-05-20 03:51:00,
2013-05-19 23:56:00,69.8,68.9,30.07,SSE,162,0.0,1.0,97,0.00,,---,0.01,0.00,VWS V14.01,2013-05-20 03:56:00,